Wind_Speed
66 62 57 57 61 72 75 71 76 79 78 74 61 51 43 32 27 29 29 25 31 33 39 38 35 35 33 37 43 44 50 53 52 50 48 44 45 46 45 44 42 30 37
63 60 59 64 71 76 78 80 77 72 68 59 48 37 25 22 17 21 21 25 30 35 40 39 35 33 31 34 36 40 44 46 48 45 45 46 41 46 44 39 48 36 37
59 64 63 72 79 82 78 71 64 58 55 45 35 29 23 23 12 13 14 18 27 36 38 37 36 32 31 32 36 36 40 40 35 28 30 35 33 30 36 41 42 44 46
63 67 71 79 79 76 66 63 53 45 41 33 25 24 25 32 28 11 9 9 20 34 37 40 38 36 34 35 34 26 36 37 33 31 26 27 27 29 31 33 35 40 44
69 70 77 74 76 66 61 53 48 39 31 28 18 18 31 37 36 22 18 10 18 32 40 44 41 39 37 32 31 36 37 37 32 28 26 28 27 28 27 29 31 31 38
71 74 71 70 61 60 53 48 36 29 23 23 15 16 34 34 25 24 23 14 18 34 43 45 40 38 37 35 30 32 38 29 31 30 30 33 31 28 29 29 31 29 29
70 69 67 58 51 51 47 38 29 22 21 18 17 28 36 32 24 32 27 25 27 43 46 46 38 30 26 29 32 34 36 42 37 32 34 30 30 31 31 31 30 30 30
63 59 54 47 43 43 41 32 22 19 22 15 19 34 40 32 30 17 25 29 33 44 49 43 35 26 32 31 35 35 37 38 36 31 31 29 33 32 35 34 31 30 31
51 47 45 41 40 39 36 24 18 18 17 22 30 41 41 40 31 22 26 29 34 46 53 44 45 40 40 40 35 39 39 38 37 36 34 34 34 36 37 33 31 31 29
42 42 39 38 36 34 31 19 16 18 21 31 35 47 44 45 32 36 41 40 41 51 56 54 53 46 42 42 37 41 41 39 38 38 38 37 35 35 37 33 31 30 28
42 38 35 33 32 31 27 16 15 18 31 32 43 53 51 46 36 38 40 40 46 57 55 59 57 54 46 46 39 36 41 39 35 38 34 33 35 35 33 34 33 32 31
39 33 33 32 30 27 23 15 14 19 38 38 53 53 54 51 46 56 41 47 49 56 57 61 57 58 48 47 41 41 40 42 39 37 39 37 34 33 29 30 35 33 35
39 32 33 33 30 23 22 17 15 19 42 46 58 48 56 54 48 49 47 48 51 51 59 64 61 60 51 48 47 43 42 40 43 43 39 39 39 39 38 35 32 31 33
40 34 32 32 31 23 18 17 17 14 45 51 62 51 60 53 55 44 49 44 42 49 57 59 62 57 51 48 46 45 44 46 46 44 45 43 43 40 40 40 38 34 34
42 37 37 34 31 26 19 17 18 18 45 50 60 54 53 51 51 51 55 49 48 47 52 58 61 61 55 47 48 45 48 46 50 47 42 40 41 41 38 42 42 43 39
44 41 39 38 32 29 24 20 16 21 22 54 57 57 54 56 54 57 53 53 48 46 49 51 60 59 59 55 49 50 44 45 46 43 42 43 40 44 45 42 42 45 46
46 44 44 38 34 32 29 24 21 20 22 44 57 64 60 56 51 56 59 49 55 55 47 54 50 47 39 42 44 44 49 48 47 45 45 45 41 41 43 46 45 42 41
48 49 45 41 38 35 33 32 27 21 25 31 55 61 62 61 53 55 57 51 55 49 55 54 56 60 49 52 49 47 49 48 48 51 51 53 50 44 47 47 48 46 42
52 49 48 45 42 41 37 34 33 28 24 33 44 58 65 66 56 52 60 61 55 48 55 56 62 64 55 50 51 59 57 56 57 56 52 54 54 54 48 49 46 45 46
55 53 51 50 48 48 45 40 35 36 33 29 40 45 66 70 70 63 54 63 60 54 57 62 60 65 63 61 58 48 49 47 50 59 56 55 54 52 49 50 53 52 52
57 56 55 53 52 52 51 48 45 40 40 36 34 43 49 73 76 71 64 66 64 60 56 56 57 63 69 63 65 60 59 62 61 60 56 51 54 55 60 59 57 58 60
66 62 60 60 56 55 54 51 51 49 44 43 40 39 45 53 73 75 78 68 70 64 63 64 65 58 57 59 62 64 71 68 67 68 64 65 64 59 65 63 67 64 64
76 71 69 69 68 62 56 53 53 53 50 48 47 48 45 46 57 66 68 82 79 79 77 71 71 71 64 63 68 64 66 67 67 69 70 73 70 68 68 66 66 70 70
84 82 78 77 76 72 67 63 60 57 56 54 54 51 53 50 50 52 63 68 67 71 78 81 74 77 72 71 74 72 70 70 71 73 74 74 76 76 76 75 74 76 74
92 90 87 86 84 79 74 69 68 64 63 61 57 58 56 59 56 55 54 56 64 70 70 67 68 71 70 70 74 80 83 83 82 81 81 83 81 77 78 78 82 83 82
96 96 93 91 89 87 83 79 73 71 69 68 64 62 59 62 65 64 62 61 59 62 66 67 68 69 69 72 73 74 76 80 79 78 77 79 77 76 74 77 75 75 76
Wind_Direction
299 296 294 297 296 299 302 300 300 299 299 299 295 294 293 288 282 267 263 255 244 225 219 216 213 211 217 223 224 221 222 220 222 223 227 228 231 235 234 234 230 227 230
294 292 291 299 300 301 301 303 300 300 296 295 298 294 282 268 271 277 268 260 239 225 211 208 208 211 218 219 223 220 221 220 221 224 226 229 229 230 234 234 229 220 226
294 294 288 296 302 302 300 301 299 295 293 290 286 268 248 218 244 261 280 271 225 215 208 202 204 208 210 213 215 217 219 216 207 206 215 221 220 223 227 232 230 229 229
290 294 298 301 301 304 303 300 296 294 291 287 279 252 223 191 200 204 235 263 224 204 199 196 201 200 203 205 213 209 219 212 208 205 208 213 218 219 225 227 232 233 236
289 296 302 305 306 306 303 296 294 292 284 278 267 248 198 188 190 183 193 209 212 203 196 197 199 201 196 205 210 209 208 206 206 210 215 223 220 218 218 223 227 227 227
291 297 306 308 303 301 299 299 293 284 274 269 266 202 183 189 189 184 190 183 223 191 189 194 193 194 199 203 205 216 210 219 215 214 220 222 219 215 224 223 226 222 223
294 302 305 302 298 299 302 298 284 258 251 257 198 186 191 187 182 190 191 186 220 190 188 190 183 185 196 205 219 219 213 211 226 215 218 216 228 221 226 228 230 228 229
299 300 301 297 299 303 306 297 272 245 244 233 193 186 182 170 167 177 197 212 197 194 191 177 168 192 209 221 218 217 212 214 222 223 218 227 231 225 226 230 229 229 233
297 295 295 295 298 308 311 294 254 241 226 193 180 175 174 170 138 121 223 222 202 195 191 173 175 181 196 204 229 222 216 213 217 216 214 220 230 228 230 231 233 231 231
288 287 288 290 299 312 314 283 243 239 200 185 187 172 171 161 166 199 216 227 213 200 188 182 176 187 197 202 217 224 217 215 218 224 222 222 233 234 232 235 228 231 234
279 281 283 287 298 314 315 275 236 234 190 190 179 166 163 163 167 193 225 216 206 200 196 194 191 195 204 198 207 219 214 218 217 219 224 237 236 231 230 232 237 237 241
275 279 281 286 295 310 318 267 246 230 195 186 173 170 174 177 178 179 209 209 203 203 204 200 201 203 207 212 223 229 227 227 215 227 227 229 227 230 239 250 249 246 246
268 273 277 280 287 298 320 278 247 227 197 188 181 180 183 188 176 186 196 200 200 207 210 208 209 207 209 217 226 228 233 234 229 224 227 233 234 235 232 233 239 253 247
263 270 270 276 282 285 298 292 261 240 200 193 191 187 187 192 191 192 192 191 211 212 214 216 215 210 212 219 223 223 229 229 229 229 232 236 238 241 241 238 240 238 249
260 265 264 268 274 279 281 297 260 250 203 204 200 197 194 202 202 205 198 196 202 219 220 222 224 219 217 221 223 229 230 231 231 230 234 234 233 236 238 240 241 241 249
258 260 261 260 266 275 275 275 274 245 233 210 207 202 196 194 195 198 202 205 214 215 224 223 219 228 230 229 229 234 228 232 229 230 234 232 239 238 241 241 240 241 246
254 256 257 258 261 264 270 269 270 244 244 214 212 207 204 199 204 205 204 212 223 222 224 222 214 227 233 234 236 237 236 238 237 237 241 240 246 248 247 243 244 245 251
250 250 254 255 258 259 267 265 261 259 237 227 218 211 209 204 209 211 214 212 219 225 228 226 226 229 235 231 233 239 237 237 239 248 247 252 251 253 248 246 243 246 249
247 246 250 252 255 259 258 256 257 254 250 232 225 223 219 211 217 222 219 213 222 232 225 227 226 228 230 233 245 241 239 237 243 248 249 252 252 254 248 244 245 249 255
247 247 247 249 251 255 257 256 257 254 245 242 230 228 223 224 219 222 224 226 226 231 232 233 233 233 237 234 241 239 242 242 247 247 255 256 258 258 251 246 252 257 259
249 248 251 251 249 251 255 258 258 258 249 244 241 234 232 224 221 226 224 241 232 229 229 227 236 240 240 235 239 240 245 248 248 252 253 256 256 260 257 249 255 258 263
250 251 250 255 253 250 251 253 256 255 253 247 242 238 234 228 231 235 232 234 231 235 244 236 238 245 232 235 242 244 249 252 256 257 254 251 251 256 255 253 257 263 262
249 249 251 254 256 256 254 253 257 258 255 252 245 240 237 239 235 235 238 239 236 244 245 243 244 246 247 245 245 246 246 248 253 256 257 255 257 258 258 257 260 257 262
251 249 249 252 255 256 256 255 256 257 258 255 253 246 241 239 242 241 238 234 236 243 246 247 248 249 252 255 250 251 249 249 250 251 255 258 261 262 264 264 263 264 265
246 247 248 249 252 254 255 253 254 254 254 252 254 253 248 243 240 241 242 239 236 235 236 238 239 245 248 253 255 253 254 257 259 260 256 259 261 261 263 262 263 265 263
248 247 248 249 250 252 254 255 252 252 252 252 252 250 251 250 242 242 243 242 241 240 239 239 238 239 243 244 245 248 251 253 254 256 256 259 260 260 260 260 259 261 263
Height
10765 10763 10762 10759 10756 10753 10748 10745 10740 10735 10731 10729 10728 10728 10729 10729 10731 10732 10735 10738 10741 10747 10754 10760 10768 10774 10779 10783 10788 10794 10799 10803 10809 10814 10820 10825 10829 10833 10837 10840 10846 10849 10851
10757 10752 10748 10748 10746 10742 10737 10731 10726 10721 10717 10716 10718 10720 10719 10722 10724 10727 10728 10732 10735 10740 10748 10756 10763 10770 10775 10779 10785 10789 10794 10798 10804 10809 10814 10819 10823 10827 10830 10835 10839 10843 10845
10748 10744 10740 10737 10734 10730 10725 10720 10714 10709 10706 10707 10711 10712 10713 10715 10718 10723 10724 10727 10729 10736 10745 10754 10760 10766 10771 10776 10780 10785 10790 10795 10800 10805 10810 10814 10818 10821 10825 10828 10832 10835 10840
10737 10734 10732 10728 10722 10718 10712 10708 10704 10700 10699 10699 10702 10701 10701 10703 10711 10717 10723 10725 10727 10732 10741 10751 10755 10761 10767 10773 10776 10782 10786 10791 10795 10799 10804 10809 10814 10817 10820 10823 10825 10829 10833
10727 10725 10723 10717 10711 10706 10702 10698 10695 10692 10691 10692 10696 10694 10696 10699 10704 10714 10720 10725 10726 10730 10737 10745 10751 10758 10765 10769 10772 10775 10780 10787 10791 10796 10801 10805 10809 10812 10815 10817 10820 10823 10827
10719 10715 10712 10706 10701 10697 10692 10688 10686 10685 10685 10687 10689 10691 10694 10698 10707 10712 10718 10720 10722 10727 10732 10740 10749 10755 10762 10765 10769 10771 10777 10782 10786 10790 10796 10800 10804 10806 10810 10813 10816 10820 10822
10710 10705 10702 10698 10694 10690 10684 10680 10678 10678 10680 10681 10683 10687 10691 10698 10705 10713 10713 10714 10717 10721 10730 10737 10746 10752 10756 10760 10765 10768 10772 10776 10781 10785 10790 10795 10799 10803 10805 10808 10812 10815 10817
10701 10696 10694 10691 10688 10682 10677 10673 10672 10673 10674 10676 10678 10685 10691 10699 10707 10713 10717 10716 10715 10720 10726 10734 10738 10746 10751 10754 10759 10763 10767 10772 10776 10782 10786 10792 10796 10797 10800 10804 10807 10810 10814
10692 10688 10687 10684 10681 10676 10671 10668 10668 10669 10670 10672 10675 10681 10689 10699 10707 10699 10705 10720 10716 10718 10723 10729 10734 10739 10744 10748 10753 10757 10762 10768 10773 10778 10782 10788 10791 10792 10796 10801 10803 10806 10808
10684 10681 10680 10678 10675 10672 10666 10664 10665 10665 10666 10670 10674 10677 10685 10694 10698 10703 10707 10714 10715 10716 10719 10725 10727 10733 10737 10741 10745 10751 10757 10763 10768 10774 10778 10782 10785 10787 10792 10796 10797 10799 10803
10676 10675 10674 10673 10669 10668 10663 10660 10662 10663 10665 10668 10672 10676 10682 10687 10689 10698 10700 10704 10707 10712 10716 10721 10723 10727 10731 10734 10740 10745 10751 10757 10762 10767 10772 10777 10779 10783 10786 10788 10790 10794 10796
10667 10668 10668 10667 10664 10663 10660 10658 10659 10661 10663 10665 10671 10675 10677 10681 10682 10687 10692 10696 10700 10706 10710 10716 10718 10722 10728 10733 10738 10742 10747 10753 10756 10761 10765 10769 10773 10776 10780 10782 10784 10788 10790
10658 10660 10662 10661 10659 10659 10657 10655 10656 10659 10661 10662 10665 10669 10671 10672 10677 10680 10681 10687 10694 10700 10703 10708 10712 10719 10725 10730 10735 10738 10742 10747 10751 10756 10760 10764 10768 10770 10773 10776 10779 10783 10785
10649 10652 10653 10654 10652 10653 10654 10651 10651 10654 10658 10660 10661 10663 10666 10667 10670 10674 10679 10684 10690 10695 10701 10706 10711 10715 10720 10725 10728 10733 10737 10741 10745 10750 10754 10757 10761 10763 10766 10769 10773 10775 10779
10641 10644 10645 10646 10645 10646 10648 10648 10647 10649 10653 10656 10658 10660 10663 10663 10667 10671 10675 10679 10686 10691 10696 10701 10705 10712 10716 10720 10723 10726 10731 10735 10739 10744 10748 10750 10753 10755 10759 10762 10765 10769 10772
10632 10633 10635 10637 10639 10639 10641 10643 10643 10644 10645 10650 10653 10656 10658 10661 10665 10670 10673 10677 10681 10687 10690 10694 10701 10705 10710 10713 10716 10720 10723 10727 10731 10737 10740 10743 10746 10750 10752 10754 10758 10761 10764
10621 10622 10624 10629 10632 10632 10635 10637 10638 10638 10639 10643 10647 10651 10654 10657 10660 10664 10668 10672 10676 10681 10685 10690 10694 10697 10701 10704 10709 10713 10717 10722 10726 10730 10733 10736 10740 10742 10744 10747 10749 10752 10755
10609 10610 10615 10618 10622 10625 10627 10629 10631 10633 10634 10636 10640 10645 10648 10650 10654 10658 10662 10665 10667 10672 10677 10682 10687 10691 10693 10696 10701 10707 10710 10714 10718 10722 10724 10728 10730 10732 10735 10738 10741 10744 10746
10596 10601 10602 10606 10611 10614 10617 10619 10623 10626 10627 10629 10632 10636 10640 10644 10647 10650 10653 10657 10662 10664 10668 10673 10678 10682 10685 10689 10693 10698 10701 10704 10708 10711 10714 10717 10720 10723 10726 10729 10732 10735 10738
10582 10587 10591 10593 10598 10601 10605 10609 10613 10616 10619 10621 10624 10627 10633 10636 10639 10640 10644 10650 10653 10657 10662 10666 10669 10674 10677 10680 10684 10688 10692 10695 10699 10702 10705 10707 10710 10714 10717 10720 10722 10725 10726
10568 10573 10576 10578 10583 10588 10592 10598 10601 10605 10609 10613 10615 10617 10620 10626 10630 10632 10634 10639 10643 10648 10651 10655 10659 10664 10668 10672 10676 10678 10682 10685 10688 10692 10695 10697 10700 10703 10707 10709 10710 10713 10714
10552 10558 10562 10563 10568 10572 10578 10583 10587 10592 10597 10602 10606 10607 10609 10612 10618 10621 10626 10629 10633 10637 10641 10646 10649 10653 10656 10660 10665 10668 10669 10673 10675 10679 10683 10686 10688 10692 10696 10698 10700 10701 10703
10535 10540 10544 10547 10550 10556 10564 10568 10572 10577 10584 10589 10593 10597 10599 10603 10606 10610 10614 10619 10623 10625 10629 10633 10638 10641 10645 10648 10652 10656 10658 10660 10663 10665 10668 10671 10675 10678 10681 10684 10686 10688 10689
10513 10518 10525 10529 10531 10538 10545 10552 10557 10562 10567 10573 10578 10585 10589 10592 10595 10597 10600 10604 10608 10611 10614 10618 10622 10626 10630 10633 10638 10639 10643 10645 10648 10651 10653 10656 10659 10663 10665 10666 10668 10671 10673
10488 10494 10503 10509 10513 10520 10525 10533 10539 10545 10550 10556 10563 10569 10574 10579 10581 10583 10586 10588 10591 10595 10598 10601 10605 10610 10612 10618 10619 10623 10628 10630 10630 10633 10637 10641 10643 10647 10648 10650 10652 10654 10655
10464 10472 10481 10487 10491 10499 10507 10513 10520 10525 10531 10538 10545 10552 10557 10561 10566 10569 10572 10575 10577 10580 10583 10586 10590 10594 10597 10601 10603 10606 10609 10611 10613 10617 10619 10621 10624 10627 10630 10632 10634 10636 10638